When you browse on this site, cookies collect data to enhance your experience and personalize the content and advertising you see.
Visit our Privacy Policy to learn more. By continuing to use the site, you agree to this use of cookies and data.
  • In United Kingdom
  • List of Countries
  • For 7 days
  • Water Temperature
  • Satellite Maps
  • Weather Map
  • Weather Widgets
  • user-avatar
    Login

    Hourly Weather Cimoszka

    Today, 21 February, Thursday

    Time Temperature Precipitation Wind Pressure Humidity
    00:00 -2°C° 0 mm 5 mps 747 mmHg 72%
    01:00 -3°C° 0 mm 4 mps 748 mmHg 72%
    02:00 -3°C° 0 mm 4 mps 748 mmHg 73%
    03:00 -3°C° 0 mm 4 mps 748 mmHg 71%
    04:00 -3°C° 0 mm 4 mps 748 mmHg 70%
    05:00 -2°C° 0 mm 3 mps 748 mmHg 68%
    06:00 -2°C° 0 mm 3 mps 749 mmHg 68%
    07:00 -2°C° 0 mm 3 mps 749 mmHg 68%
    08:00 -2°C° 0 mm 3 mps 749 mmHg 67%
    09:00 -1°C° 0 mm 3 mps 749 mmHg 62%
    10:00 0°C° 0 mm 3 mps 749 mmHg 57%
    11:00 0°C° 0 mm 3 mps 750 mmHg 52%
    12:00 +2°C° 0 mm 2 mps 750 mmHg 51%
    13:00 +2°C° 0 mm 2 mps 750 mmHg 50%
    14:00 +2°C° 0 mm 2 mps 749 mmHg 48%
    15:00 +2°C° 0 mm 2 mps 749 mmHg 50%
    16:00 +3°C° 0 mm 1 mps 749 mmHg 53%
    17:00 +3°C° 0 mm 1 mps 749 mmHg 55%
    18:00 +2°C° 0.1 mm 1 mps 749 mmHg 57%
    19:00 -1°C° 0.1 mm 2 mps 749 mmHg 58%
    20:00 -1°C° 0.1 mm 3 mps 749 mmHg 60%
    21:00 -2°C° 0.1 mm 3 mps 749 mmHg 61%
    22:00 -3°C° 0.1 mm 4 mps 749 mmHg 61%
    23:00 -4°C° 0.1 mm 4 mps 750 mmHg 62%

    Tomorrow, 22 February, Friday

    Time Temperature Precipitation Wind Pressure Humidity
    00:00 -4°C° 0 mm 4 mps 750 mmHg 60%
    01:00 -4°C° 0 mm 4 mps 751 mmHg 59%
    02:00 -4°C° 0 mm 4 mps 751 mmHg 58%
    03:00 -6°C° 0 mm 5 mps 752 mmHg 58%
    04:00 -6°C° 0 mm 5 mps 753 mmHg 58%
    05:00 -7°C° 0 mm 5 mps 753 mmHg 59%
    06:00 -7°C° 0 mm 5 mps 754 mmHg 56%
    07:00 -8°C° 0 mm 5 mps 756 mmHg 54%
    08:00 -9°C° 0 mm 6 mps 757 mmHg 52%
    09:00 -8°C° 0 mm 5 mps 757 mmHg 48%
    10:00 -8°C° 0 mm 5 mps 758 mmHg 44%
    11:00 -7°C° 0 mm 5 mps 759 mmHg 41%
    12:00 -7°C° 0 mm 5 mps 759 mmHg 38%
    13:00 -6°C° 0 mm 5 mps 760 mmHg 35%
    14:00 -6°C° 0 mm 5 mps 760 mmHg 31%
    15:00 -6°C° 0 mm 5 mps 760 mmHg 32%
    16:00 -6°C° 0 mm 5 mps 761 mmHg 32%
    17:00 -6°C° 0 mm 5 mps 761 mmHg 32%
    18:00 -7°C° 0 mm 5 mps 761 mmHg 34%
    19:00 -7°C° 0 mm 5 mps 762 mmHg 36%
    20:00 -7°C° 0 mm 5 mps 762 mmHg 38%
    21:00 -8°C° 0 mm 4 mps 763 mmHg 39%
    22:00 -8°C° 0 mm 4 mps 763 mmHg 41%
    23:00 -7°C° 0 mm 3 mps 764 mmHg 42%

    Day after tomorrow, 23 February, Saturday

    Time Temperature Precipitation Wind Pressure Humidity
    00:00 -7°C° 0 mm 3 mps 764 mmHg 45%
    01:00 -7°C° 0 mm 3 mps 764 mmHg 47%
    02:00 -8°C° 0 mm 3 mps 764 mmHg 49%
    03:00 -7°C° 0 mm 2 mps 764 mmHg 51%
    04:00 -7°C° 0 mm 2 mps 764 mmHg 53%
    05:00 -8°C° 0 mm 2 mps 764 mmHg 55%
    06:00 -8°C° 0 mm 2 mps 764 mmHg 56%
    07:00 -8°C° 0 mm 2 mps 765 mmHg 57%
    08:00 -8°C° 0 mm 2 mps 765 mmHg 57%
    09:00 -7°C° 0 mm 2 mps 765 mmHg 51%
    10:00 -6°C° 0 mm 2 mps 765 mmHg 45%
    11:00 -5°C° 0 mm 2 mps 766 mmHg 39%
    12:00 -4°C° 0 mm 2 mps 765 mmHg 35%
    13:00 -4°C° 0 mm 2 mps 765 mmHg 32%
    14:00 -3°C° 0 mm 2 mps 765 mmHg 28%
    15:00 -3°C° 0 mm 2 mps 765 mmHg 29%
    16:00 -3°C° 0 mm 2 mps 764 mmHg 30%
    17:00 -3°C° 0 mm 2 mps 764 mmHg 31%
    18:00 -3°C° 0 mm 2 mps 764 mmHg 34%
    19:00 -3°C° 0 mm 2 mps 764 mmHg 38%
    20:00 -4°C° 0 mm 2 mps 764 mmHg 42%
    21:00 -4°C° 0 mm 2 mps 763 mmHg 44%
    22:00 -4°C° 0 mm 2 mps 763 mmHg 47%
    23:00 -4°C° 0 mm 2 mps 763 mmHg 49%

    24 February, Sunday

    Time Temperature Precipitation Wind Pressure Humidity
    00:00 -4°C° 0 mm 2 mps 763 mmHg 49%
    01:00 -4°C° 0 mm 3 mps 762 mmHg 49%
    02:00 -4°C° 0 mm 3 mps 762 mmHg 48%
    03:00 -4°C° 0 mm 3 mps 762 mmHg 49%
    04:00 -5°C° 0 mm 3 mps 761 mmHg 51%
    05:00 -5°C° 0 mm 3 mps 760 mmHg 52%
    06:00 -5°C° 0 mm 3 mps 760 mmHg 53%
    07:00 -4°C° 0 mm 3 mps 760 mmHg 53%
    08:00 -4°C° 0 mm 3 mps 760 mmHg 54%
    09:00 -4°C° 0 mm 3 mps 759 mmHg 55%
    10:00 -2°C° 0 mm 3 mps 759 mmHg 57%
    11:00 -2°C° 0 mm 3 mps 759 mmHg 59%
    12:00 -1°C° 0 mm 3 mps 758 mmHg 62%
    13:00 -1°C° 0 mm 3 mps 758 mmHg 64%
    14:00 0°C° 0 mm 3 mps 758 mmHg 67%
    15:00 0°C° 0 mm 3 mps 757 mmHg 71%
    16:00 0°C° 0 mm 3 mps 757 mmHg 75%
    17:00 0°C° 0 mm 3 mps 756 mmHg 78%
    18:00 0°C° 0 mm 3 mps 756 mmHg 82%
    19:00 -1°C° 0 mm 3 mps 756 mmHg 85%
    20:00 -1°C° 0 mm 3 mps 755 mmHg 89%
    21:00 -1°C° 0 mm 3 mps 755 mmHg 90%
    22:00 -1°C° 0 mm 3 mps 755 mmHg 92%
    23:00 -1°C° 0 mm 3 mps 754 mmHg 93%

    25 February, Monday

    Time Temperature Precipitation Wind Pressure Humidity
    00:00 -1°C° 0 mm 3 mps 754 mmHg 94%
    01:00 0°C° 0 mm 3 mps 754 mmHg 95%
    02:00 0°C° 0 mm 3 mps 754 mmHg 96%
    03:00 -1°C° 0 mm 4 mps 754 mmHg 94%
    04:00 0°C° 0 mm 5 mps 754 mmHg 93%
    05:00 0°C° 0 mm 5 mps 754 mmHg 92%
    06:00 0°C° 0 mm 5 mps 755 mmHg 90%
    07:00 -1°C° 0 mm 6 mps 755 mmHg 88%
    08:00 -1°C° 0 mm 6 mps 756 mmHg 86%
    09:00 -1°C° 0 mm 6 mps 756 mmHg 78%
    10:00 +1°C° 0 mm 6 mps 757 mmHg 71%
    11:00 +2°C° 0 mm 7 mps 757 mmHg 64%
    12:00 +2°C° 0 mm 6 mps 757 mmHg 60%
    13:00 +3°C° 0 mm 6 mps 757 mmHg 57%
    14:00 +3°C° 0 mm 6 mps 757 mmHg 53%
    15:00 +3°C° 0 mm 5 mps 757 mmHg 59%
    16:00 +2°C° 0 mm 5 mps 757 mmHg 64%
    17:00 +3°C° 0 mm 4 mps 757 mmHg 70%
    18:00 +1°C° 0 mm 4 mps 757 mmHg 75%
    19:00 0°C° 0 mm 4 mps 757 mmHg 79%
    20:00 -1°C° 0 mm 5 mps 757 mmHg 84%
    21:00 -1°C° 0 mm 4 mps 757 mmHg 85%
    22:00 -2°C° 0 mm 4 mps 756 mmHg 86%
    23:00 -2°C° 0 mm 4 mps 756 mmHg 86%

    26 February, Tuesday

    Time Temperature Precipitation Wind Pressure Humidity
    00:00 -2°C° 0 mm 4 mps 755 mmHg 84%
    01:00 -2°C° 0 mm 5 mps 755 mmHg 82%
    02:00 -2°C° 0 mm 5 mps 754 mmHg 80%
    03:00 -2°C° 0 mm 5 mps 753 mmHg 83%
    04:00 -2°C° 0 mm 4 mps 753 mmHg 87%
    05:00 -2°C° 0 mm 4 mps 752 mmHg 90%
    06:00 -1°C° 0 mm 4 mps 752 mmHg 92%
    07:00 -1°C° 0 mm 4 mps 752 mmHg 93%
    08:00 +1°C° 0 mm 3 mps 751 mmHg 95%
    09:00 0°C° 0 mm 4 mps 751 mmHg 91%
    10:00 +1°C° 0 mm 4 mps 750 mmHg 88%
    11:00 +1°C° 0 mm 4 mps 750 mmHg 84%
    12:00 +2°C° 0 mm 5 mps 749 mmHg 81%
    13:00 +3°C° 0 mm 5 mps 749 mmHg 78%
    14:00 +5°C° 0 mm 5 mps 748 mmHg 75%
    15:00 +5°C° 0 mm 5 mps 747 mmHg 78%
    16:00 +4°C° 0 mm 6 mps 747 mmHg 80%
    17:00 +3°C° 0 mm 6 mps 747 mmHg 83%
    18:00 +3°C° 0 mm 6 mps 746 mmHg 83%
    19:00 +2°C° 0 mm 6 mps 746 mmHg 83%
    20:00 0°C° 0 mm 7 mps 746 mmHg 83%
    21:00 +1°C° 0 mm 6 mps 746 mmHg 81%
    22:00 -1°C° 0 mm 6 mps 747 mmHg 78%
    23:00 -1°C° 0 mm 6 mps 747 mmHg 75%
    Show more